Wind_Speed
24 24 24 24 24 23 22 22 21 21 22 22 22 23 23 22 21 21 19 19 19 18 18 18 18 18 18 17 16 16 15 15 15 15 15 14 14 14 14 13 13 12 12 12 11 11 11 11 11
24 24 24 24 25 24 23 22 23 23 23 23 24 23 24 24 23 22 21 20 20 20 19 19 19 19 19 18 18 17 17 17 16 16 16 15 15 15 15 15 14 14 14 13 13 12 13 13 13
23 24 24 25 25 24 23 23 24 24 24 24 25 25 25 25 24 24 22 22 22 21 21 20 20 20 20 20 20 19 19 18 18 18 18 18 18 17 17 17 16 16 16 16 15 15 15 15 15
25 25 25 26 25 24 24 24 24 25 25 25 26 26 26 25 25 25 24 23 23 23 22 22 22 21 21 21 21 21 20 20 19 19 20 20 20 20 20 19 19 18 18 18 18 17 17 17 17
25 25 26 26 26 25 25 24 24 25 26 26 26 26 26 26 26 26 26 25 25 24 24 24 23 23 22 22 22 22 22 21 21 21 21 21 22 22 22 21 21 21 20 20 20 19 19 19 20
26 26 27 27 26 26 26 25 26 26 26 26 27 27 27 26 26 26 26 26 25 25 25 25 25 24 24 23 23 24 24 23 23 23 23 23 23 23 23 23 23 23 23 23 22 22 22 22 22
27 27 27 27 26 27 27 26 26 27 27 27 27 27 27 27 27 26 27 27 27 26 26 26 25 25 25 26 25 25 25 25 25 25 25 25 26 26 25 25 25 25 25 25 25 25 24 24 24
28 28 28 28 27 27 28 28 27 28 28 28 28 28 28 28 28 28 27 28 28 27 28 27 27 27 27 28 28 27 27 27 26 26 26 26 27 27 27 27 27 27 27 27 27 26 26 26 26
29 30 29 28 28 28 29 30 29 29 29 29 29 30 30 29 29 29 29 29 29 28 28 29 28 29 28 29 29 29 29 28 28 28 27 27 28 28 28 28 28 28 28 28 28 29 28 28 28
30 31 30 29 29 29 30 31 31 30 30 30 30 31 31 31 31 31 31 30 30 30 30 30 31 31 30 30 30 30 30 30 30 30 30 29 29 29 29 29 29 29 29 30 30 30 30 31 31
32 31 31 31 30 30 30 31 32 32 32 31 31 31 31 32 32 31 31 31 32 32 32 31 32 32 32 31 31 31 31 30 30 30 31 31 31 31 31 31 30 31 31 32 32 33 32 32 32
32 32 32 32 31 31 32 32 32 33 33 32 32 32 32 32 32 32 32 32 33 33 33 33 33 33 33 33 33 33 32 32 31 31 32 31 32 32 32 32 32 32 32 33 33 34 34 34 34
33 32 32 32 32 33 33 33 33 33 33 33 33 33 32 33 34 34 34 33 33 34 34 34 34 33 33 33 33 33 33 33 33 32 33 33 33 33 33 33 33 33 33 34 35 36 36 36 36
34 34 34 33 33 33 33 33 33 33 34 34 34 34 33 33 33 34 35 34 34 34 34 34 34 34 34 34 34 34 35 34 34 34 34 34 35 35 35 36 36 36 36 36 36 37 38 38 38
35 35 34 34 33 33 33 34 34 34 34 35 35 35 35 34 34 34 35 35 35 35 35 35 35 36 36 35 35 35 36 35 35 36 36 36 37 37 38 38 38 38 38 38 37 37 38 39 40
34 34 34 33 34 34 34 34 34 34 34 34 35 35 35 34 34 34 36 36 36 36 36 36 37 37 37 37 38 37 37 37 37 37 37 38 38 39 39 39 39 39 39 39 39 39 40 41 42
33 33 33 33 34 34 34 34 34 34 34 34 35 35 35 35 35 35 36 37 38 39 38 38 39 38 39 39 38 38 38 38 38 38 39 39 39 39 40 39 39 40 40 40 40 41 42 43 44
31 32 33 33 34 34 34 34 34 34 34 34 35 35 35 35 36 36 36 37 38 39 40 40 40 40 40 40 39 40 39 39 39 40 40 40 40 40 40 40 40 41 41 41 42 42 43 44 45
30 31 32 33 34 34 35 35 35 35 35 34 35 35 36 35 36 37 38 37 38 39 40 40 41 41 41 41 41 41 40 40 40 40 40 41 41 41 41 40 41 42 42 43 43 44 45 45 46
29 30 31 32 33 34 35 36 36 36 35 35 35 35 35 35 35 36 38 38 39 39 40 41 42 42 42 42 42 42 41 41 41 42 42 42 42 41 41 40 41 42 43 43 43 44 45 45 45
29 30 31 31 32 34 35 35 35 36 36 36 35 35 35 35 35 36 37 38 38 39 39 41 41 42 43 43 43 43 43 42 42 43 43 43 43 42 42 42 42 43 43 43 44 44 44 45 46
29 30 30 31 32 32 33 34 33 34 35 35 35 35 35 35 35 36 37 38 38 38 38 40 41 41 42 42 43 42 42 43 43 43 43 43 43 43 43 43 44 44 44 45 45 45 46 46 47
30 30 30 31 31 32 32 33 32 32 34 34 35 35 35 35 35 35 36 37 38 38 38 38 39 40 41 41 42 42 42 43 43 43 44 44 44 44 45 45 46 46 46 46 47 48 49 48 48
30 29 30 31 32 32 30 32 31 30 31 32 33 34 34 34 35 35 34 36 37 38 38 38 39 39 39 40 41 42 43 43 43 44 45 45 45 46 46 46 47 47 47 48 49 49 49 49 49
29 29 30 30 31 32 30 31 31 30 30 30 31 32 32 33 34 34 34 35 36 37 38 38 39 39 39 39 40 41 43 44 44 44 45 45 45 45 46 46 46 47 48 48 48 48 48 49 49
28 29 30 31 31 31 30 31 29 29 29 30 30 31 32 32 32 33 33 34 35 36 37 38 38 38 39 39 40 41 42 43 44 44 45 45 46 46 46 46 46 47 47 47 48 48 49 49 49
28 28 29 30 31 31 31 30 29 28 29 29 29 30 31 31 32 32 33 33 34 34 35 36 37 38 38 39 39 40 41 42 42 43 44 44 44 45 46 46 47 47 47 47 47 48 48 48 48
27 27 27 28 29 30 31 30 28 28 29 29 29 29 29 30 30 31 32 32 33 34 35 35 36 37 38 38 38 39 39 40 41 41 42 42 43 43 44 45 45 46 46 46 47 47 47 47 47
26 26 26 28 28 29 29 29 27 27 28 29 29 29 29 30 30 31 31 32 32 33 34 34 35 36 37 36 37 37 38 38 39 40 41 41 42 42 43 43 43 44 44 45 46 46 46 46 47
26 26 27 28 29 29 30 29 27 27 28 29 29 29 29 29 30 30 31 32 32 32 34 34 35 35 36 36 36 37 37 37 38 39 39 40 40 40 41 41 42 42 43 43 44 44 45 46 46
Wind_Direction
240 238 238 238 240 243 245 246 245 243 243 242 243 243 242 241 241 243 243 243 244 246 247 246 246 246 244 246 249 248 249 251 254 255 253 251 251 252 252 251 251 250 250 251 253 255 257 259 261
241 240 240 241 242 244 246 245 244 243 243 242 243 244 243 243 243 243 243 243 244 246 247 248 247 246 247 248 249 249 250 252 253 253 253 253 252 252 253 252 253 254 254 256 258 257 260 260 261
243 243 242 242 243 244 246 245 244 243 244 243 243 244 245 244 244 244 244 245 245 246 247 248 249 248 248 249 250 249 251 252 252 253 254 256 255 254 255 255 255 256 256 257 259 259 261 263 265
245 244 244 244 243 244 245 246 245 244 244 244 244 244 245 245 245 245 245 246 246 246 247 248 249 249 250 249 250 251 251 252 253 254 255 255 256 257 258 257 258 258 258 258 259 261 263 265 267
246 246 246 246 245 244 246 247 247 246 244 244 244 244 244 245 245 246 246 246 246 246 247 248 249 250 250 250 249 251 252 252 253 255 256 257 257 258 258 258 258 258 260 260 261 263 264 265 266
247 247 247 248 247 246 247 249 249 247 245 244 244 244 245 244 245 245 245 245 246 246 246 248 250 250 251 250 250 251 251 252 254 255 256 256 256 257 258 259 259 259 260 261 262 264 265 265 267
248 248 248 250 249 247 246 248 249 249 246 245 245 246 245 245 244 245 244 245 245 245 246 247 249 250 250 251 252 253 253 253 255 256 257 257 256 257 258 258 258 260 261 261 263 264 264 266 267
249 250 250 251 251 250 249 248 250 250 249 248 246 246 246 246 245 244 245 245 246 246 247 247 249 251 252 253 254 256 256 255 255 256 258 258 258 259 258 257 258 259 261 262 262 263 264 266 268
250 251 252 252 253 252 252 251 250 251 251 250 248 248 247 246 245 243 244 245 246 247 248 248 250 252 253 253 254 256 257 257 257 257 258 259 259 259 259 258 258 259 260 262 262 263 265 266 268
251 252 253 253 253 253 253 252 251 252 252 252 250 249 248 247 246 244 244 246 246 246 248 249 251 252 253 254 255 256 257 257 257 258 259 259 259 259 258 259 259 259 260 261 263 264 266 266 267
251 252 253 252 252 253 253 252 252 252 252 251 251 248 248 247 246 244 243 244 245 247 248 250 251 252 253 255 256 257 257 257 258 259 259 260 259 259 258 259 262 262 262 262 263 264 265 266 267
252 251 251 252 253 254 254 253 252 252 252 250 250 249 248 247 246 245 245 246 247 248 250 250 251 253 254 254 257 257 258 258 259 259 259 259 259 259 260 260 261 262 263 264 264 264 265 266 266
251 252 252 253 254 254 255 254 253 251 251 249 249 250 250 250 249 248 248 249 248 249 251 252 252 252 253 255 256 258 258 258 259 259 260 260 259 259 260 261 261 262 264 265 266 265 264 265 266
252 253 253 254 255 255 255 254 253 252 250 249 249 250 251 250 250 250 249 250 250 250 250 251 251 252 253 255 256 256 257 258 258 259 260 260 260 261 261 262 262 263 265 266 266 266 264 265 266
252 253 253 254 255 255 254 253 253 252 252 250 250 250 252 251 251 251 250 250 250 250 250 251 251 252 252 254 256 258 259 258 258 260 260 261 261 261 262 262 264 265 266 267 267 267 265 266 266
252 252 252 254 255 255 255 254 253 253 253 252 251 251 251 252 252 252 250 250 251 251 251 251 252 252 253 255 257 258 258 258 259 260 260 261 261 262 263 264 265 266 266 268 268 268 268 268 267
252 253 253 254 255 255 256 255 254 254 254 254 253 252 251 252 252 253 253 252 251 252 252 252 253 254 255 255 257 258 257 258 258 259 260 261 262 262 263 264 265 266 268 269 270 269 270 271 270
254 254 254 254 255 255 256 255 254 254 255 254 253 253 253 253 254 254 254 253 252 253 253 252 254 255 255 256 257 258 258 257 258 259 260 261 262 263 264 264 266 267 269 270 270 271 271 272 272
254 254 255 255 256 256 256 255 255 254 254 255 255 254 254 255 255 255 255 255 253 253 253 253 254 254 256 257 257 258 259 259 259 260 261 262 262 263 264 264 266 267 268 269 271 272 273 273 273
255 255 256 257 257 257 256 255 254 254 254 255 255 255 255 257 257 255 255 255 254 253 253 253 254 255 255 257 257 258 259 260 260 260 261 262 262 263 263 265 267 268 268 269 271 273 273 274 274
255 256 256 257 258 258 257 255 254 254 254 254 255 255 255 256 256 256 255 255 255 255 254 254 255 256 256 256 257 259 260 261 260 260 261 262 262 263 264 265 266 268 269 269 271 274 274 275 275
256 257 257 258 259 259 258 258 255 254 254 255 255 256 256 256 257 257 256 256 256 256 256 255 256 258 258 258 258 259 259 259 260 260 261 262 263 264 264 264 266 268 269 270 271 274 275 277 277
257 257 258 258 260 260 260 260 257 255 255 255 256 256 257 258 258 258 258 256 257 256 256 257 258 258 258 259 260 259 259 259 260 261 262 263 264 264 265 265 266 267 269 271 272 274 276 277 278
257 257 258 259 259 260 261 262 260 257 258 258 257 257 258 257 258 259 259 258 257 257 257 258 259 259 259 260 260 260 261 261 261 262 263 264 265 265 265 265 266 268 270 271 273 274 276 276 278
256 257 259 260 260 262 262 263 263 260 260 260 258 257 258 259 260 261 261 260 258 257 257 258 259 261 262 263 262 262 262 263 264 264 265 266 266 267 267 267 268 269 271 273 274 274 276 277 278
258 257 258 261 263 264 264 264 264 263 262 260 259 258 258 259 260 261 262 261 261 260 259 260 261 262 263 263 263 264 264 264 265 265 266 267 268 267 268 269 270 271 272 273 273 276 277 278 279
260 258 259 261 262 264 264 266 264 263 263 262 260 259 259 260 261 261 261 261 262 263 262 262 262 263 263 264 264 265 265 265 265 266 267 267 268 268 270 271 271 273 274 274 275 276 277 278 279
261 259 258 258 262 265 267 267 267 265 264 265 264 262 262 263 264 263 263 263 264 265 265 264 264 264 264 264 264 264 265 265 266 266 267 268 269 270 271 272 273 274 275 276 276 276 277 278 278
260 258 257 259 261 265 268 268 268 267 266 265 265 265 265 264 265 265 265 265 265 266 267 267 266 265 265 265 265 265 265 265 266 267 267 268 269 270 271 272 273 274 275 276 276 277 278 279 279
260 258 258 259 262 264 267 269 268 268 267 265 265 264 264 264 264 264 265 266 266 266 267 267 266 266 266 266 265 265 264 265 266 267 267 268 269 270 271 273 274 275 275 276 277 278 280 281 282
Height
5817 5818 5820 5821 5823 5824 5825 5827 5828 5829 5829 5830 5831 5832 5834 5836 5837 5840 5840 5839 5840 5841 5842 5843 5843 5844 5844 5845 5845 5846 5847 5847 5847 5847 5848 5849 5849 5849 5850 5850 5851 5851 5851 5851 5851 5851 5851 5851 5852
5812 5814 5816 5817 5818 5820 5822 5823 5823 5824 5825 5826 5827 5828 5829 5830 5832 5833 5834 5835 5836 5837 5838 5839 5840 5840 5841 5842 5842 5843 5844 5844 5844 5845 5845 5846 5846 5847 5847 5848 5848 5848 5848 5848 5848 5849 5849 5849 5849
5808 5809 5812 5813 5814 5816 5817 5818 5819 5820 5821 5821 5822 5823 5825 5826 5827 5829 5830 5831 5833 5834 5834 5835 5836 5837 5838 5838 5839 5840 5840 5841 5841 5842 5842 5843 5843 5844 5844 5845 5845 5845 5846 5846 5846 5846 5846 5846 5846
5804 5805 5807 5808 5809 5811 5812 5813 5814 5815 5816 5817 5818 5819 5820 5822 5823 5824 5826 5827 5828 5829 5830 5831 5832 5833 5834 5835 5835 5836 5837 5837 5838 5838 5839 5839 5840 5841 5841 5841 5842 5842 5842 5842 5842 5843 5843 5843 5843
5799 5800 5802 5803 5805 5806 5807 5808 5809 5810 5811 5812 5813 5814 5815 5817 5818 5819 5821 5823 5824 5825 5826 5827 5828 5829 5830 5831 5831 5832 5833 5833 5834 5834 5835 5836 5836 5837 5837 5838 5838 5838 5839 5839 5839 5839 5839 5839 5839
5794 5795 5797 5798 5800 5801 5802 5803 5804 5804 5805 5807 5808 5809 5810 5812 5813 5815 5816 5818 5819 5820 5822 5822 5823 5824 5825 5826 5827 5827 5828 5829 5830 5830 5831 5831 5832 5832 5833 5833 5834 5834 5834 5835 5835 5835 5835 5835 5835
5789 5789 5791 5793 5794 5795 5797 5797 5798 5799 5800 5801 5803 5804 5805 5807 5808 5809 5811 5812 5814 5815 5816 5817 5818 5819 5820 5821 5822 5822 5823 5824 5824 5825 5826 5826 5827 5827 5828 5828 5829 5829 5830 5830 5830 5830 5830 5830 5830
5782 5784 5785 5787 5788 5790 5791 5791 5792 5793 5794 5796 5797 5798 5800 5801 5802 5804 5805 5807 5808 5810 5811 5812 5813 5814 5815 5816 5816 5817 5818 5818 5819 5820 5820 5821 5821 5822 5822 5823 5823 5824 5824 5825 5825 5825 5825 5825 5825
5776 5778 5779 5781 5783 5784 5784 5785 5786 5787 5788 5789 5791 5792 5794 5795 5796 5798 5799 5801 5802 5804 5805 5806 5807 5808 5809 5809 5810 5811 5812 5812 5813 5814 5814 5815 5815 5816 5816 5817 5818 5818 5819 5819 5819 5819 5819 5819 5819
5769 5771 5774 5775 5776 5777 5778 5779 5780 5781 5782 5783 5784 5785 5787 5788 5790 5792 5793 5795 5796 5798 5799 5800 5801 5801 5802 5803 5804 5805 5806 5806 5807 5807 5808 5809 5809 5810 5810 5811 5812 5812 5813 5813 5813 5813 5813 5813 5813
5762 5765 5767 5767 5768 5769 5770 5771 5772 5774 5775 5776 5777 5778 5779 5781 5783 5784 5786 5788 5789 5791 5792 5793 5794 5795 5795 5796 5797 5798 5799 5800 5800 5801 5802 5802 5803 5803 5804 5805 5805 5806 5806 5806 5806 5806 5806 5806 5806
5755 5757 5758 5760 5761 5762 5763 5764 5765 5766 5768 5769 5770 5771 5772 5774 5775 5777 5779 5781 5782 5784 5785 5786 5787 5788 5789 5789 5790 5791 5792 5793 5794 5794 5795 5796 5796 5797 5797 5798 5799 5799 5799 5799 5799 5799 5799 5799 5799
5748 5750 5751 5752 5753 5754 5755 5756 5757 5759 5760 5761 5763 5764 5765 5766 5768 5770 5772 5773 5775 5776 5777 5779 5780 5781 5782 5782 5783 5784 5785 5786 5787 5788 5788 5789 5790 5790 5791 5791 5792 5792 5792 5791 5791 5791 5791 5791 5791
5740 5742 5743 5744 5745 5746 5747 5748 5750 5751 5752 5753 5755 5757 5758 5759 5761 5762 5764 5766 5767 5769 5770 5771 5773 5774 5774 5775 5776 5777 5778 5779 5780 5781 5781 5782 5782 5783 5783 5784 5784 5784 5784 5784 5783 5783 5783 5783 5783
5732 5734 5735 5736 5737 5738 5739 5741 5742 5743 5744 5746 5747 5749 5750 5752 5753 5755 5756 5758 5760 5761 5762 5764 5765 5766 5767 5768 5768 5769 5770 5771 5772 5773 5773 5774 5775 5775 5776 5776 5776 5776 5776 5776 5776 5775 5775 5775 5775
5723 5725 5727 5729 5729 5730 5733 5734 5735 5735 5736 5738 5739 5741 5742 5744 5745 5747 5748 5750 5752 5753 5755 5756 5757 5758 5759 5760 5761 5761 5762 5763 5764 5764 5765 5766 5766 5767 5767 5768 5768 5768 5768 5768 5768 5767 5766 5766 5766
5716 5717 5719 5721 5721 5722 5723 5726 5727 5727 5728 5730 5731 5732 5734 5736 5737 5738 5740 5741 5743 5745 5746 5748 5749 5750 5751 5752 5752 5753 5754 5754 5755 5756 5757 5757 5758 5758 5759 5759 5759 5759 5759 5759 5759 5758 5757 5757 5756
5709 5710 5711 5712 5713 5714 5715 5717 5718 5719 5720 5721 5723 5724 5725 5727 5728 5730 5731 5732 5734 5736 5737 5739 5740 5741 5742 5743 5744 5744 5745 5745 5746 5747 5748 5748 5749 5749 5750 5750 5750 5750 5750 5750 5749 5749 5748 5747 5746
5700 5702 5703 5704 5704 5705 5707 5708 5710 5710 5712 5713 5714 5716 5717 5718 5719 5720 5722 5723 5725 5726 5728 5729 5731 5732 5733 5734 5735 5735 5736 5736 5737 5738 5739 5739 5740 5740 5740 5741 5741 5741 5740 5740 5739 5739 5738 5737 5736
5692 5694 5695 5695 5696 5696 5697 5699 5701 5702 5703 5705 5706 5707 5708 5709 5710 5711 5712 5714 5715 5717 5718 5719 5721 5722 5723 5724 5725 5726 5726 5727 5728 5728 5729 5729 5730 5731 5731 5731 5731 5731 5730 5730 5730 5728 5727 5726 5725
5684 5686 5687 5687 5687 5687 5688 5690 5693 5694 5694 5696 5697 5698 5699 5700 5701 5701 5702 5704 5705 5706 5708 5709 5711 5712 5713 5714 5715 5716 5717 5717 5718 5718 5719 5719 5720 5720 5721 5721 5721 5720 5720 5720 5719 5718 5717 5716 5714
5677 5678 5679 5679 5679 5679 5680 5680 5684 5685 5686 5687 5689 5689 5690 5691 5691 5692 5693 5694 5695 5697 5698 5699 5700 5701 5702 5704 5705 5706 5706 5707 5708 5708 5708 5709 5709 5710 5710 5710 5710 5710 5710 5709 5708 5707 5706 5704 5703
5669 5670 5671 5671 5670 5671 5672 5671 5676 5676 5677 5679 5680 5681 5681 5682 5682 5683 5683 5684 5685 5687 5688 5689 5689 5690 5692 5693 5694 5695 5696 5697 5697 5698 5698 5698 5699 5699 5699 5699 5699 5699 5698 5698 5697 5696 5694 5693 5692
5661 5662 5662 5662 5662 5663 5665 5664 5666 5668 5670 5670 5671 5672 5672 5672 5673 5673 5674 5675 5676 5677 5678 5678 5679 5680 5681 5682 5683 5684 5685 5686 5686 5687 5687 5687 5688 5688 5688 5688 5687 5687 5687 5686 5686 5684 5683 5681 5680
5654 5655 5655 5654 5654 5655 5657 5655 5659 5661 5662 5662 5662 5663 5663 5663 5664 5664 5665 5665 5666 5667 5668 5668 5669 5670 5671 5671 5672 5673 5674 5674 5675 5676 5676 5676 5676 5676 5676 5676 5676 5676 5675 5675 5674 5672 5671 5669 5667
5646 5647 5648 5648 5647 5648 5648 5648 5652 5652 5653 5653 5653 5654 5654 5654 5655 5655 5656 5656 5657 5657 5658 5659 5659 5660 5660 5661 5662 5662 5663 5663 5664 5664 5665 5665 5665 5665 5665 5664 5664 5663 5663 5662 5661 5660 5658 5656 5654
5638 5639 5640 5640 5639 5640 5640 5642 5644 5644 5644 5644 5644 5645 5645 5646 5646 5646 5647 5647 5648 5648 5649 5649 5650 5650 5650 5651 5651 5651 5651 5652 5653 5653 5653 5653 5653 5653 5653 5652 5652 5651 5650 5649 5648 5647 5645 5643 5642
5630 5631 5632 5632 5631 5632 5633 5634 5636 5636 5636 5636 5636 5636 5637 5637 5637 5637 5638 5639 5639 5639 5639 5640 5640 5640 5640 5640 5640 5641 5641 5641 5641 5641 5641 5641 5641 5641 5641 5640 5640 5639 5637 5636 5635 5634 5632 5630 5629
5623 5624 5624 5624 5624 5625 5625 5629 5628 5628 5628 5628 5628 5628 5628 5629 5629 5629 5629 5629 5630 5630 5630 5630 5630 5630 5630 5630 5630 5630 5630 5630 5630 5630 5630 5630 5630 5630 5629 5629 5628 5627 5626 5624 5623 5621 5619 5617 5615
5614 5616 5616 5617 5617 5617 5617 5623 5620 5620 5619 5619 5619 5619 5619 5620 5620 5619 5620 5620 5620 5620 5620 5620 5620 5620 5620 5620 5619 5619 5619 5619 5619 5619 5619 5619 5619 5618 5618 5617 5617 5615 5614 5613 5611 5609 5607 5605 5603